Tracking 27107 objects as of 20-Mar-2023
HD Live streaming from Space Station
objects crossing your sky now

STARLINK-4169

Track STARLINK-4169 now!
10-day predictions
STARLINK-4169 is classified as:


NORAD ID: 53280
Int'l Code: 2022-086AQ
Perigee: 546.0 km
Apogee: 547.8 km
Inclination: 53.2 °
Period: 95.4 minutes
Semi major axis: 6917 km
RCS: Unknown
Launch date: July 24, 2022
Source: United States (US)
Launch site: AIR FORCE EASTERN TEST RANGE (AFETR)
Your satellite tracking list
Your tracking list is empty




NASA's NSSDC Master Catalog

Two Line Element Set (TLE):
1 53280U 22086AQ  23079.07580323 -.00000923  00000-0 -39914-4 0  9991
2 53280  53.2197 332.3860 0001321  85.1910 274.9233 15.08843652 37779
Source of the keplerian elements: AFSPC